CAPE
0 0 0 0 0 0 0 0 0 0 0 0 0 0 0 0 0 0 0 0 0 0 0 0 0 0 3 1 0 1 16 23 29 50 51 45 2 0
0 0 0 0 0 0 0 0 0 0 0 0 0 0 0 0 0 0 0 0 0 0 0 0 0 0 0 1 5 0 0 16 46 37 2 3 0 0
0 0 0 0 0 0 0 0 0 0 0 0 0 0 0 0 0 0 0 0 0 0 0 0 0 0 0 0 2 13 0 0 1 10 19 0 0 0
0 0 0 0 0 0 0 0 0 0 0 0 0 0 0 0 0 0 0 0 0 0 0 0 0 0 0 0 1 0 3 0 0 0 0 0 0 0
0 0 0 0 0 0 0 0 0 0 0 1 0 0 0 0 0 0 0 0 0 0 0 0 0 0 0 0 1 6 1 0 0 0 0 0 0 0
0 0 0 0 0 0 0 0 0 0 0 0 0 3 0 0 0 0 0 0 0 0 0 0 0 2 3 0 4 6 5 2 11 0 0 0 0 0
0 0 0 0 6 4 4 2 3 2 3 0 0 0 0 0 0 0 0 0 0 0 0 0 0 0 0 1 0 1 2 4 1 0 0 0 0 0
0 0 0 0 0 2 0 4 5 1 0 0 0 0 0 0 0 0 0 0 0 0 0 0 0 0 0 0 0 0 1 2 2 0 0 0 0 0
0 0 0 0 0 0 0 0 0 0 0 0 0 0 0 0 0 0 0 0 0 0 0 0 0 0 0 0 0 0 0 1 1 3 0 0 0 0
0 0 0 0 0 1 1 0 0 0 0 0 0 0 0 0 0 0 0 0 0 0 0 1 0 0 0 0 0 0 0 1 0 0 0 0 0 0
0 0 0 0 0 9 2 0 0 0 0 1 3 4 0 2 0 0 0 0 1 1 0 1 0 0 0 0 0 0 0 0 0 0 0 0 0 0
0 0 0 2 3 4 2 0 0 0 0 0 0 0 0 0 0 0 0 0 0 0 0 0 0 0 0 0 0 0 0 0 0 0 0 0 0 0
0 0 0 1 2 4 4 0 0 0 0 0 0 0 0 0 0 0 0 0 0 0 0 0 0 0 0 0 0 0 0 0 0 0 0 0 0 0
0 0 0 1 0 0 1 3 1 0 0 0 0 0 0 0 0 0 0 0 0 0 0 0 0 0 0 0 0 0 0 0 0 0 0 0 0 0
0 0 0 0 0 0 0 0 0 0 0 0 0 0 0 0 0 0 0 0 0 0 0 0 0 0 0 0 0 0 0 0 0 0 0 0 0 0
0 0 0 0 0 0 0 0 0 0 0 0 0 0 0 0 0 0 0 0 0 0 0 1 0 0 0 1 0 0 0 0 0 0 0 0 0 0
0 0 0 0 0 0 0 0 0 0 0 0 0 0 0 0 0 0 0 0 0 0 0 0 1 0 0 0 0 0 0 0 0 0 0 0 0 0
0 0 0 0 0 0 0 0 0 0 0 0 0 0 0 0 0 0 0 0 0 0 0 0 0 0 0 0 0 0 0 0 0 0 0 0 0 0
0 0 0 0 0 0 0 0 0 0 0 0 0 0 0 0 0 0 0 0 0 0 0 0 0 0 0 0 0 0 0 0 0 0 0 0 0 0
0 0 0 0 0 0 0 0 0 0 0 0 0 0 0 0 0 0 0 0 0 0 0 0 0 0 0 0 0 0 0 0 0 0 0 0 0 0
0 0 0 0 0 0 0 0 0 0 0 0 0 0 0 0 0 0 0 0 0 0 0 0 0 0 0 0 0 0 0 0 0 0 0 0 0 0
0 0 0 0 0 0 0 0 0 0 0 0 0 0 0 0 0 0 0 0 0 0 0 0 0 0 0 0 0 0 0 0 0 0 0 0 0 0
0 0 0 0 0 0 0 0 0 0 0 0 0 0 0 0 0 0 0 0 0 0 0 0 0 0 0 0 0 0 0 0 0 0 0 0 0 0
CIN
0 0 0 0 0 0 0 0 0 0 0 0 0 0 0 0 0 0 0 0 0 0 0 0 0 0 -29 0 0 -19 -7 -4 -4 -5 -5 -2 -11 0
0 0 0 0 0 0 0 0 0 0 0 0 0 0 0 0 0 0 0 0 0 0 0 0 0 0 0 0 -1 0 0 -5 -8 -15 -20 -40 0 0
0 0 0 0 0 0 0 0 0 0 0 0 0 0 0 0 0 0 0 0 0 0 0 0 0 0 0 0 -2 -4 0 0 -3 -26 -34 0 -14 0
0 0 0 0 0 0 0 0 0 0 0 0 0 0 0 0 0 0 0 0 0 0 0 0 0 0 0 0 0 -7 -12 0 0 0 0 0 0 0
0 0 0 0 0 0 0 0 0 0 0 0 0 0 0 0 0 0 0 0 0 0 0 0 0 0 -1 0 0 0 0 0 0 0 0 0 0 0
0 0 0 0 0 0 0 0 0 0 0 0 0 -1 0 0 0 0 0 0 0 0 0 0 0 0 -2 0 0 0 0 0 -2 0 0 0 0 0
0 0 0 0 -1 -1 -1 -2 -4 -3 -1 0 0 0 0 -2 -3 0 0 0 0 0 0 0 0 0 0 0 0 0 0 0 -1 -2 0 0 0 0
0 0 0 0 0 -1 -1 -1 -1 -2 0 -1 0 0 0 0 0 0 0 0 0 0 0 0 0 0 0 0 0 0 0 0 0 0 0 0 0 0
0 0 0 0 0 0 0 0 0 0 -1 0 0 0 0 0 0 0 0 0 0 0 0 0 0 0 0 0 0 0 0 0 0 0 0 0 0 0
0 0 0 0 0 -1 -2 -1 0 0 0 0 0 0 0 0 0 0 0 0 0 0 0 0 0 0 0 0 0 0 -3 -2 0 0 0 0 0 0
0 0 0 0 0 -1 -1 0 0 0 0 0 0 0 0 0 0 0 0 0 0 0 0 -1 0 0 0 0 0 0 0 0 -5 -3 0 0 0 0
0 0 0 0 -1 -1 -2 0 0 0 0 0 0 0 0 0 0 0 0 0 0 0 0 0 0 0 0 0 0 0 0 0 0 0 0 0 0 0
0 0 0 0 -1 -1 -1 0 0 0 0 0 0 0 0 0 0 0 0 0 0 0 0 0 0 0 0 0 0 0 0 0 0 0 0 0 0 0
0 0 0 -1 -1 -1 -2 -1 0 0 0 0 0 0 0 0 0 0 0 0 0 0 0 0 0 -2 -7 0 0 0 0 0 0 0 0 0 0 0
0 0 0 0 0 0 0 0 0 0 0 0 0 0 0 0 0 0 0 0 0 0 0 0 0 0 0 0 0 0 0 0 0 0 0 0 0 0
0 0 0 0 0 0 0 0 0 0 0 0 0 0 0 0 0 0 0 0 0 0 0 0 0 0 -1 -1 -1 0 0 0 0 0 0 0 0 0
0 0 0 0 0 0 0 0 0 0 0 0 0 0 0 0 0 0 0 0 0 0 0 0 0 0 0 0 0 -1 0 0 0 0 0 0 0 0
0 0 0 0 0 0 0 0 0 0 0 0 0 0 0 0 0 0 0 0 0 0 0 0 0 0 0 0 0 -1 0 0 0 0 0 0 0 0
0 0 0 0 0 0 0 0 0 0 0 0 0 0 0 0 0 0 0 0 0 0 0 0 0 0 0 -3 0 0 0 0 0 0 0 0 0 -2
0 0 0 0 0 0 0 0 0 0 0 0 0 0 0 0 0 0 0 0 0 0 0 0 0 0 0 0 0 0 0 0 0 0 0 0 0 0
0 0 0 0 0 0 0 0 0 0 0 0 0 0 0 0 0 0 0 0 0 0 0 0 0 0 0 0 0 0 0 0 0 0 0 0 0 0
0 0 0 0 0 0 0 0 0 0 0 0 0 0 0 0 0 0 0 0 0 0 0 0 0 0 0 0 0 0 0 0 0 0 0 0 0 0
0 0 0 0 0 0 0 0 0 0 0 0 0 0 0 0 0 0 0 0 0 0 0 0 0 0 0 0 0 0 0 0 0 0 0 0 0 0
Wind_Speed
33 32 31 30 29 30 30 32 36 44 46 41 39 33 36 38 35 33 34 33 32 31 31 31 33 35 37 38 38 35 36 35 36 36 31 28 27 26
30 29 30 30 31 33 33 35 35 38 47 42 42 39 37 38 38 33 33 34 32 32 31 30 31 31 34 36 36 34 33 33 29 29 29 29 28 27
27 26 28 31 34 35 36 37 37 36 41 45 41 41 42 42 37 33 32 33 32 32 31 32 31 30 30 33 35 34 31 31 30 28 28 28 28 27
28 30 33 35 36 35 36 36 36 35 37 41 40 40 39 39 35 36 35 33 33 33 33 33 31 30 29 30 33 35 34 30 29 27 24 25 25 25
31 32 35 35 35 35 34 34 33 32 31 33 37 34 35 35 38 36 35 33 32 34 34 32 31 30 29 27 32 33 34 33 31 27 24 23 24 25
32 33 34 34 34 33 31 30 31 31 33 33 34 33 32 31 31 35 36 32 34 33 35 33 30 28 27 25 28 29 30 32 32 27 24 24 24 24
33 34 33 32 31 29 29 29 29 30 29 30 31 32 33 33 33 31 32 32 32 31 33 32 29 26 26 23 21 24 25 28 32 31 27 24 25 26
35 35 33 31 27 28 27 25 24 26 24 24 26 30 33 32 30 32 31 31 33 26 28 31 30 29 26 25 21 20 19 24 26 28 29 27 27 27
35 33 32 29 28 25 23 22 22 22 20 22 27 29 30 29 31 31 29 30 30 29 30 34 29 32 31 29 25 23 19 20 24 30 28 28 27 27
31 30 29 26 26 25 24 25 24 20 15 15 15 21 26 30 33 35 34 32 30 30 29 34 30 33 31 31 28 26 22 19 18 20 24 24 25 27
29 29 27 26 25 27 25 26 26 20 15 10 8 5 29 33 31 28 32 33 32 30 26 29 28 29 28 32 32 29 28 25 24 24 26 24 28 28
29 29 27 28 29 28 26 25 22 19 15 9 5 1 13 29 32 31 30 30 27 27 26 28 27 26 26 24 28 33 32 32 31 31 33 31 31 31
30 31 27 28 31 28 25 23 24 19 13 9 6 5 7 14 22 28 31 32 32 32 29 28 26 24 23 22 22 23 28 28 29 30 34 35 35 34
30 28 26 32 31 30 25 24 24 19 14 7 5 4 8 12 17 21 24 27 29 31 28 30 29 27 24 26 27 23 23 24 25 28 28 28 29 30
27 27 29 32 31 28 28 27 25 21 11 3 3 5 8 12 15 17 20 23 26 27 28 30 29 30 28 28 24 22 21 21 22 26 27 28 27 27
26 26 29 30 30 29 30 27 25 18 12 4 9 9 9 10 11 13 15 19 21 22 23 26 28 22 22 24 24 25 24 24 20 22 24 26 28 26
25 26 28 31 31 31 32 30 26 19 3 4 11 14 13 13 13 13 12 12 13 15 16 16 18 15 15 15 17 19 20 23 25 25 25 27 27 27
25 26 27 30 31 31 31 32 32 30 9 5 8 10 12 13 13 14 14 13 13 13 14 15 15 15 16 19 21 23 19 22 22 21 22 25 28 27
25 25 25 26 30 30 30 30 31 30 28 18 14 14 13 13 13 13 13 13 13 13 12 12 13 16 17 18 16 16 22 19 19 20 15 17 21 23
21 22 24 24 25 29 29 29 29 29 28 25 22 19 18 17 16 15 15 15 15 15 15 15 14 14 15 15 16 15 16 18 20 20 17 17 18 21
19 19 20 23 23 25 28 28 28 28 27 26 25 23 22 20 19 18 17 17 17 18 18 18 19 19 19 17 17 17 18 17 16 14 12 6 8 5
16 17 18 19 22 23 26 28 29 28 27 26 25 25 24 23 21 21 20 20 20 20 20 20 20 19 17 18 18 19 16 14 15 15 14 15 13 12
14 14 16 17 20 21 22 26 27 28 28 27 26 25 25 24 23 22 22 21 21 21 20 20 19 18 17 18 18 17 14 13 14 14 14 16 15 15
Wind_Direction
333 331 330 331 332 332 330 327 322 315 310 312 311 311 304 302 300 300 298 301 298 295 297 298 294 284 274 272 269 265 263 260 257 249 247 245 249 253
336 336 333 332 330 328 326 323 320 315 309 312 307 306 303 299 296 296 296 294 297 294 293 296 299 293 280 272 267 263 260 259 253 247 243 246 247 252
341 342 338 334 329 327 325 322 319 317 311 310 308 303 297 294 292 291 292 293 292 293 290 292 295 295 291 275 265 262 256 257 254 248 245 244 247 248
341 338 335 332 329 328 326 324 322 320 314 311 310 306 300 294 288 287 287 289 289 287 289 288 288 292 290 279 268 260 254 250 253 249 247 244 243 246
340 338 335 334 332 330 328 327 325 324 320 316 313 311 306 300 288 285 284 285 285 285 283 287 284 285 290 288 268 261 252 245 250 249 247 247 247 245
339 338 337 336 334 333 332 331 330 326 322 318 313 311 309 305 297 284 281 283 282 283 280 279 284 281 286 283 273 258 249 244 247 247 246 247 248 247
341 340 340 338 336 336 336 335 333 329 325 321 317 311 306 303 296 291 281 282 282 284 280 275 277 278 279 275 278 263 251 239 241 246 246 248 250 251
343 343 343 342 345 344 342 339 337 335 328 325 320 314 306 301 299 291 280 277 277 284 281 273 270 268 267 267 271 267 264 244 242 246 247 248 251 252
346 348 349 350 349 350 350 347 342 337 337 334 325 318 311 305 292 286 280 274 275 280 278 269 269 260 259 258 263 262 259 253 247 244 248 250 252 255
352 353 353 354 356 355 352 352 350 346 344 337 332 326 317 301 277 272 273 271 277 277 275 266 267 259 258 255 258 258 259 254 253 253 247 255 255 257
357 357 359 358 359 358 360 2 2 6 7 357 347 328 257 264 272 275 263 260 265 271 270 262 264 261 262 256 254 255 256 256 257 257 254 260 256 260
1 0 2 360 0 3 7 7 8 12 13 12 20 184 223 255 257 261 261 261 269 272 268 258 263 262 263 266 261 255 256 256 257 258 257 263 263 262
3 2 5 2 0 7 12 16 16 20 31 48 74 112 179 219 237 244 244 252 256 255 257 255 261 263 267 267 270 267 260 262 263 264 262 263 262 262
5 7 10 356 2 8 19 21 24 31 42 66 102 155 203 222 241 241 237 235 235 232 246 246 256 260 260 260 263 271 270 267 268 267 267 269 267 265
11 10 9 358 2 11 17 23 28 37 56 104 163 201 217 230 236 235 235 233 232 233 233 236 248 245 253 256 266 269 274 273 271 267 269 267 267 268
14 14 10 6 2 9 10 22 30 46 60 248 259 251 242 246 247 250 241 238 234 239 242 232 237 259 263 263 266 266 270 270 277 275 273 269 267 270
16 16 13 9 360 358 359 15 29 46 68 259 280 283 277 283 284 280 279 266 263 262 264 274 268 279 283 286 285 285 282 278 276 276 276 273 271 270
19 17 16 10 6 356 352 352 1 343 291 269 261 269 270 275 279 284 290 279 279 283 285 282 283 276 276 271 269 261 282 279 284 287 286 280 276 274
19 19 17 16 5 1 351 350 349 343 8 306 293 286 280 274 279 271 270 266 261 259 259 260 260 244 242 248 265 273 241 265 276 282 307 299 286 283
24 23 19 17 15 3 356 344 340 337 339 330 320 308 301 294 289 287 284 279 276 272 270 268 274 274 267 265 267 272 275 271 256 248 175 177 289 279
25 26 24 18 17 10 358 351 339 335 334 333 329 324 314 305 297 293 289 288 286 285 281 277 272 263 264 281 283 281 280 292 296 322 10 67 95 225
26 26 26 24 15 13 2 348 342 333 331 329 326 324 322 321 311 301 298 297 295 291 286 280 283 289 295 292 295 296 311 318 316 322 333 331 344 354
24 28 28 26 20 15 9 356 343 334 328 325 323 320 319 318 316 314 311 308 306 304 301 295 297 300 300 300 303 310 320 323 324 331 337 322 332 333